Hourly Weather Kladovo

Today, 29 July, Thursday

Time Temperature Precipitation Wind Pressure Humidity
00:00 +27°C° 0 mm 2 mps 746 mmHg 40%
01:00 +26°C° 0 mm 2 mps 746 mmHg 45%
02:00 +24°C° 0 mm 2 mps 746 mmHg 54%
03:00 +24°C° 0 mm 2 mps 746 mmHg 58%
04:00 +23°C° 0 mm 1 mps 746 mmHg 61%
05:00 +23°C° 0 mm 1 mps 746 mmHg 65%
06:00 +25°C° 0 mm 1 mps 746 mmHg 58%
07:00 +28°C° 0 mm 1 mps 746 mmHg 50%
08:00 +28°C° 0 mm 0 mps 746 mmHg 44%
09:00 +32°C° 0 mm 1 mps 746 mmHg 38%
10:00 +35°C° 0 mm 1 mps 746 mmHg 32%
11:00 +37°C° 0 mm 1 mps 746 mmHg 26%
12:00 +39°C° 0 mm 2 mps 745 mmHg 23%
13:00 +40°C° 0 mm 3 mps 745 mmHg 21%
14:00 +43°C° 0 mm 4 mps 745 mmHg 18%
15:00 +42°C° 0 mm 5 mps 744 mmHg 19%
16:00 +42°C° 0 mm 5 mps 744 mmHg 20%
17:00 +41°C° 0 mm 5 mps 744 mmHg 20%
18:00 +37°C° 0 mm 4 mps 744 mmHg 27%
19:00 +34°C° 0 mm 3 mps 744 mmHg 33%
20:00 +31°C° 0 mm 2 mps 744 mmHg 40%
21:00 +29°C° 0 mm 2 mps 744 mmHg 43%
22:00 +28°C° 0 mm 2 mps 744 mmHg 46%
23:00 +27°C° 0 mm 2 mps 744 mmHg 49%

Tomorrow, 30 July, Friday

Time Temperature Precipitation Wind Pressure Humidity
00:00 +26°C° 0 mm 2 mps 744 mmHg 50%
01:00 +25°C° 0 mm 2 mps 744 mmHg 52%
02:00 +25°C° 0 mm 2 mps 745 mmHg 53%
03:00 +24°C° 0 mm 2 mps 744 mmHg 54%
04:00 +24°C° 0 mm 2 mps 744 mmHg 54%
05:00 +24°C° 0 mm 1 mps 744 mmHg 54%
06:00 +26°C° 0 mm 1 mps 744 mmHg 49%
07:00 +28°C° 0 mm 1 mps 745 mmHg 43%
08:00 +29°C° 0 mm 0 mps 745 mmHg 38%
09:00 +33°C° 0 mm 1 mps 745 mmHg 34%
10:00 +36°C° 0 mm 2 mps 745 mmHg 30%
11:00 +38°C° 0 mm 2 mps 744 mmHg 26%
12:00 +39°C° 0 mm 2 mps 744 mmHg 24%
13:00 +40°C° 0 mm 2 mps 743 mmHg 21%
14:00 +42°C° 0 mm 1 mps 743 mmHg 19%
15:00 +41°C° 0 mm 2 mps 742 mmHg 18%
16:00 +41°C° 0 mm 2 mps 742 mmHg 18%
17:00 +41°C° 0 mm 2 mps 741 mmHg 17%
18:00 +38°C° 0 mm 2 mps 741 mmHg 23%
19:00 +35°C° 0 mm 3 mps 741 mmHg 29%
20:00 +31°C° 0 mm 3 mps 741 mmHg 35%
21:00 +30°C° 0 mm 3 mps 742 mmHg 41%
22:00 +28°C° 0 mm 2 mps 743 mmHg 48%
23:00 +27°C° 0 mm 2 mps 743 mmHg 54%

Day after tomorrow, 31 July, Saturday

Time Temperature Precipitation Wind Pressure Humidity
00:00 +26°C° 0 mm 2 mps 743 mmHg 56%
01:00 +26°C° 0 mm 2 mps 743 mmHg 58%
02:00 +26°C° 0 mm 3 mps 743 mmHg 59%
03:00 +25°C° 0 mm 2 mps 743 mmHg 62%
04:00 +24°C° 0 mm 2 mps 743 mmHg 64%
05:00 +24°C° 0 mm 2 mps 743 mmHg 67%
06:00 +26°C° 0 mm 2 mps 743 mmHg 61%
07:00 +28°C° 0 mm 2 mps 744 mmHg 54%
08:00 +30°C° 0 mm 2 mps 744 mmHg 48%
09:00 +32°C° 0 mm 2 mps 744 mmHg 42%
10:00 +35°C° 0 mm 2 mps 743 mmHg 36%
11:00 +37°C° 0 mm 2 mps 743 mmHg 30%
12:00 +38°C° 0 mm 2 mps 743 mmHg 27%
13:00 +40°C° 0 mm 2 mps 742 mmHg 25%
14:00 +41°C° 0 mm 2 mps 742 mmHg 22%
15:00 +41°C° 0 mm 2 mps 741 mmHg 21%
16:00 +41°C° 0 mm 2 mps 741 mmHg 20%
17:00 +42°C° 0 mm 3 mps 740 mmHg 19%
18:00 +37°C° 0.1 mm 3 mps 741 mmHg 32%
19:00 +33°C° 0.1 mm 3 mps 742 mmHg 44%
20:00 +27°C° 0.1 mm 4 mps 742 mmHg 57%
21:00 +26°C° 0 mm 3 mps 743 mmHg 63%
22:00 +25°C° 0 mm 2 mps 743 mmHg 69%
23:00 +23°C° 0 mm 2 mps 744 mmHg 75%

1 August, Sunday

Time Temperature Precipitation Wind Pressure Humidity
00:00 +23°C° 0 mm 1 mps 744 mmHg 76%
01:00 +23°C° 0 mm 1 mps 744 mmHg 76%
02:00 +21°C° 0 mm 0 mps 744 mmHg 76%
03:00 +20°C° 0 mm 0 mps 744 mmHg 76%
04:00 +22°C° 0 mm 1 mps 744 mmHg 76%
05:00 +22°C° 0 mm 1 mps 744 mmHg 76%
06:00 +24°C° 0 mm 1 mps 744 mmHg 68%
07:00 +27°C° 0 mm 1 mps 744 mmHg 60%
08:00 +29°C° 0 mm 1 mps 744 mmHg 52%
09:00 +31°C° 0 mm 1 mps 744 mmHg 46%
10:00 +34°C° 0 mm 2 mps 744 mmHg 39%
11:00 +37°C° 0 mm 2 mps 743 mmHg 32%
12:00 +38°C° 0 mm 2 mps 743 mmHg 28%
13:00 +40°C° 0 mm 3 mps 742 mmHg 24%
14:00 +43°C° 0 mm 3 mps 742 mmHg 19%
15:00 +43°C° 0 mm 3 mps 741 mmHg 18%
16:00 +43°C° 0 mm 3 mps 741 mmHg 17%
17:00 +43°C° 0 mm 3 mps 740 mmHg 16%
18:00 +40°C° 0 mm 2 mps 740 mmHg 18%
19:00 +38°C° 0 mm 2 mps 740 mmHg 21%
20:00 +35°C° 0 mm 2 mps 740 mmHg 24%
21:00 +34°C° 0 mm 2 mps 740 mmHg 26%
22:00 +32°C° 0 mm 2 mps 741 mmHg 29%
23:00 +30°C° 0 mm 1 mps 741 mmHg 32%

2 August, Monday

Time Temperature Precipitation Wind Pressure Humidity
00:00 +29°C° 0 mm 2 mps 741 mmHg 36%
01:00 +28°C° 0 mm 2 mps 741 mmHg 40%
02:00 +27°C° 0 mm 2 mps 741 mmHg 44%
03:00 +26°C° 0 mm 2 mps 741 mmHg 47%
04:00 +26°C° 0 mm 1 mps 741 mmHg 50%
05:00 +25°C° 0 mm 1 mps 741 mmHg 53%
06:00 +27°C° 0 mm 1 mps 741 mmHg 48%
07:00 +29°C° 0 mm 1 mps 742 mmHg 44%
08:00 +31°C° 0 mm 1 mps 742 mmHg 39%
09:00 +34°C° 0 mm 2 mps 742 mmHg 35%
10:00 +36°C° 0 mm 3 mps 742 mmHg 31%
11:00 +37°C° 0 mm 5 mps 742 mmHg 27%
12:00 +39°C° 0 mm 5 mps 742 mmHg 27%
13:00 +39°C° 0 mm 6 mps 742 mmHg 26%
14:00 +39°C° 0 mm 7 mps 742 mmHg 26%
15:00 +39°C° 0 mm 7 mps 742 mmHg 26%
16:00 +38°C° 0 mm 7 mps 742 mmHg 26%
17:00 +37°C° 0 mm 8 mps 742 mmHg 26%
18:00 +34°C° 0 mm 6 mps 742 mmHg 29%
19:00 +32°C° 0 mm 5 mps 742 mmHg 32%
20:00 +29°C° 0 mm 4 mps 742 mmHg 35%
21:00 +28°C° 0 mm 4 mps 743 mmHg 38%
22:00 +26°C° 0 mm 4 mps 744 mmHg 41%
23:00 +25°C° 0 mm 3 mps 744 mmHg 45%

3 August, Tuesday

Time Temperature Precipitation Wind Pressure Humidity
00:00 +24°C° 0 mm 3 mps 745 mmHg 47%
01:00 +22°C° 0 mm 3 mps 745 mmHg 49%
02:00 +20°C° 0 mm 2 mps 746 mmHg 51%
03:00 +20°C° 0 mm 2 mps 746 mmHg 52%
04:00 +19°C° 0 mm 2 mps 746 mmHg 54%
05:00 +19°C° 0 mm 2 mps 746 mmHg 55%
06:00 +21°C° 0 mm 2 mps 747 mmHg 49%
07:00 +25°C° 0 mm 2 mps 747 mmHg 43%
08:00 +27°C° 0 mm 2 mps 747 mmHg 37%
09:00 +29°C° 0 mm 3 mps 747 mmHg 32%
10:00 +31°C° 0 mm 3 mps 747 mmHg 28%
11:00 +34°C° 0 mm 4 mps 747 mmHg 23%
12:00 +35°C° 0 mm 4 mps 747 mmHg 22%
13:00 +36°C° 0 mm 4 mps 747 mmHg 20%
14:00 +36°C° 0 mm 4 mps 746 mmHg 19%
15:00 +36°C° 0 mm 4 mps 746 mmHg 19%
16:00 +36°C° 0 mm 4 mps 746 mmHg 19%
17:00 +36°C° 0 mm 5 mps 746 mmHg 19%
18:00 +33°C° 0 mm 4 mps 746 mmHg 24%
19:00 +30°C° 0 mm 3 mps 745 mmHg 29%
20:00 +27°C° 0 mm 2 mps 745 mmHg 34%
21:00 +26°C° 0 mm 2 mps 746 mmHg 36%
22:00 +25°C° 0 mm 2 mps 746 mmHg 37%
23:00 +25°C° 0 mm 1 mps 746 mmHg 38%
Show more